Date,TemperatureHighF,TemperatureAvgF,TemperatureLowF,DewpointHighF,DewpointAvgF,DewpointLowF,HumidityHigh,HumidityAvg,HumidityLow,PressureMaxIn,PressureMinIn,WindSpeedMaxMPH,WindSpeedAvgMPH,GustSpeedMaxMPH,PrecipitationSumIn
2014-1-1,19.7,17.2,14.9,17.0,15.0,13.0,92,90,87,30.34,30.16,17,6,17,0.00
2014-1-2,16.2,12.6,-2.1,14.0,9.6,-6.0,92,87,77,30.37,30.05,16,8,23,0.00
2014-1-3,14.8,3.8,-13.8,7.0,-2.3,-18.0,89,76,62,30.54,30.19,13,3,16,0.00
2014-1-4,33.6,25.3,12.3,25.0,17.4,7.0,79,72,64,30.19,29.97,13,4,19,0.03
2014-1-5,32.9,28.2,19.0,31.0,26.6,18.0,97,94,79,30.02,29.68,18,4,28,0.00
2014-1-6,19.3,-5.6,-13.6,18.0,-9.3,-18.0,94,84,80,30.31,29.78,17,4,23,0.00
2014-1-7,7.2,-4.3,-12.6,4.0,-8.4,-17.0,87,83,79,30.44,30.30,8,2,17,0.00
2014-1-8,18.6,8.4,-1.8,14.0,5.2,-5.0,90,87,82,30.56,30.39,4,0,6,0.00
2014-1-9,25.9,10.1,-3.1,25.0,7.8,-6.0,96,90,86,30.59,30.28,9,3,12,0.00
2014-1-10,39.7,34.5,26.6,40.0,33.9,26.0,99,98,95,30.27,29.64,13,5,19,0.78
2014-1-11,41.8,36.9,32.8,42.0,36.1,30.0,99,96,88,29.74,29.41,11,3,16,0.10
2014-1-12,41.6,33.8,30.1,34.0,30.4,28.0,93,87,73,29.99,29.74,13,5,21,0.00
2014-1-13,47.1,41.8,34.4,41.0,35.7,32.0,92,79,71,29.75,29.58,9,3,20,0.00
2014-1-14,38.1,30.8,23.0,33.0,26.7,20.0,96,85,67,29.83,29.68,14,4,22,0.00
2014-1-15,26.5,22.3,17.9,20.0,17.3,13.0,88,81,72,30.07,29.84,9,2,18,0.00
2014-1-16,29.5,23.6,17.4,28.0,20.9,13.0,95,89,80,29.99,29.64,11,5,17,0.00
2014-1-17,26.8,19.0,10.9,21.0,14.4,7.0,89,82,77,30.01,29.70,10,1,12,0.00
2014-1-18,19.4,15.4,8.8,18.0,12.6,6.0,93,89,79,30.00,29.82,9,3,13,0.00
2014-1-19,33.5,21.2,2.2,27.0,17.6,-1.0,95,86,78,29.88,29.58,12,3,21,0.01
2014-1-20,35.6,31.6,21.4,31.0,26.9,18.0,90,82,76,29.96,29.56,14,4,21,0.02
2014-1-21,20.9,7.5,-2.6,18.0,-0.3,-9.0,89,71,51,30.25,29.95,16,6,20,0.00
2014-1-22,12.2,7.1,-0.8,10.0,2.3,-5.0,89,81,66,30.25,29.98,7,2,16,0.01
2014-1-23,10.0,4.2,-1.6,5.0,-1.3,-6.0,85,78,68,30.59,30.08,8,2,19,0.00
2014-1-24,19.7,6.2,-6.8,18.0,0.6,-11.0,91,78,65,30.59,29.67,19,4,27,0.00
2014-1-25,28.5,19.2,6.8,27.0,15.6,1.0,95,86,69,29.86,29.41,24,7,34,0.00
2014-1-26,32.0,17.7,4.2,28.0,13.9,-1.0,93,85,78,29.86,29.45,32,4,35,0.01
2014-1-27,22.0,2.7,-9.1,20.0,-1.7,-14.0,93,82,75,30.44,29.61,15,3,27,0.00
2014-1-28,4.9,-4.4,-13.5,-6.0,-10.8,-17.0,83,74,58,30.51,30.34,9,1,11,0.00
2014-1-29,18.7,9.1,-3.4,7.0,0.7,-8.0,84,69,54,30.34,30.21,10,2,14,0.00
2014-1-30,30.1,21.5,13.5,25.0,12.5,4.0,93,69,58,30.20,29.80,17,5,24,0.00
2014-1-31,30.8,28.5,25.2,27.0,24.7,20.0,95,86,66,30.14,29.90,6,1,8,0.04
2014-2-1,37.9,31.7,27.3,37.0,31.0,26.0,98,97,95,30.10,29.79,12,4,17,0.65
2014-2-2,28.8,23.2,14.3,28.0,20.3,11.0,95,89,80,30.30,30.00,13,5,16,0.00
2014-2-3,25.9,12.5,-0.6,16.0,8.3,-3.0,92,84,64,30.44,30.27,3,0,6,0.03
2014-2-4,21.7,13.2,0.3,18.0,9.6,-3.0,93,86,71,30.48,30.10,12,4,16,0.00
2014-2-5,23.2,19.9,10.9,21.0,17.8,8.0,94,91,84,30.42,29.91,15,8,22,0.00
2014-2-6,15.0,6.9,-5.8,12.0,3.2,-9.0,92,85,75,30.45,30.40,10,1,14,0.00
2014-2-7,11.6,1.7,-8.8,4.0,-3.5,-12.0,87,79,67,30.49,30.42,7,1,15,0.00
2014-2-8,15.4,10.2,2.6,12.0,6.4,-2.0,91,84,79,30.43,30.19,7,2,8,0.00
2014-2-9,18.9,14.4,5.9,15.0,11.1,3.0,93,86,75,30.28,30.11,15,2,18,0.00
2014-2-10,17.1,4.8,-6.1,9.0,0.8,-9.0,90,84,70,30.48,30.27,7,1,11,0.00
2014-2-11,15.6,1.0,-11.9,8.0,-3.4,-15.0,90,82,68,30.58,30.47,3,0,6,0.00
2014-2-12,21.6,7.2,-8.4,12.0,1.7,-12.0,89,79,63,30.51,30.12,6,1,9,0.00
2014-2-13,30.4,18.4,-2.7,24.0,11.1,-6.0,90,74,55,30.11,29.54,8,3,11,0.00
2014-2-14,31.4,22.3,17.0,27.0,17.9,14.0,89,83,75,29.87,29.52,12,5,16,0.00
2014-2-15,27.3,17.8,8.2,18.0,13.2,6.0,93,82,65,30.11,29.87,6,2,10,0.00
2014-2-16,26.5,21.0,13.9,23.0,17.9,10.0,92,87,80,30.33,29.96,13,4,17,0.00
2014-2-17,27.6,18.5,11.8,27.0,15.9,10.0,97,89,81,30.36,29.70,23,9,26,0.00
2014-2-18,43.4,34.1,22.5,33.0,27.9,20.0,96,79,65,30.06,29.70,12,5,21,0.03
2014-2-19,45.9,37.3,29.1,34.0,31.7,27.0,94,80,61,30.04,29.63,13,2,19,0.00
2014-2-20,49.6,36.7,31.6,49.0,35.3,29.0,99,94,85,30.04,29.39,20,8,28,1.26
2014-2-21,38.2,35.0,31.7,33.0,27.3,20.0,86,74,57,29.86,29.51,17,6,27,0.00
2014-2-22,39.6,33.3,26.0,30.0,25.2,16.0,93,74,51,30.04,29.82,6,1,15,0.00
2014-2-23,31.6,25.3,19.8,27.0,18.1,13.0,84,75,62,30.17,30.03,12,3,20,0.00
2014-2-24,26.9,19.9,14.7,15.0,12.4,10.0,82,73,56,30.26,30.16,11,3,15,0.00
2014-2-25,24.9,19.8,13.4,17.0,14.2,7.0,89,79,70,30.22,30.09,11,2,15,0.00
2014-2-26,15.7,11.6,5.9,7.0,4.3,1.0,86,73,55,30.20,29.76,11,3,19,0.00
2014-2-27,18.8,10.8,-1.5,13.0,5.6,-5.0,89,79,68,30.25,29.65,24,8,38,0.00
2014-2-28,25.1,11.7,-6.1,14.0,3.3,-9.0,87,70,57,30.33,30.11,13,5,19,0.00
2014-3-1,34.0,25.9,18.1,26.0,19.4,15.0,92,77,60,30.28,30.08,12,5,17,0.00
2014-3-2,20.1,15.9,10.8,16.0,12.6,7.0,92,87,77,30.38,30.24,12,5,15,0.08
2014-3-3,16.9,6.2,-3.9,7.0,-2.2,-8.0,85,69,48,30.53,30.37,10,3,14,0.02
2014-3-4,23.3,12.5,3.1,10.0,4.0,-4.0,82,69,56,30.46,30.24,5,1,12,0.00
2014-3-5,22.9,17.6,5.0,18.0,12.7,1.0,89,81,73,30.48,30.28,12,5,16,0.00
2014-3-6,29.6,20.1,15.2,19.0,13.8,10.0,87,76,64,30.49,30.17,17,6,17,0.01
2014-3-7,46.1,28.7,11.4,32.0,21.9,9.0,93,77,50,30.17,29.95,6,1,10,0.01
2014-3-8,38.0,32.6,22.5,33.0,29.9,19.0,95,89,82,30.23,29.96,11,5,16,0.06
2014-3-9,38.0,27.4,11.9,31.0,22.5,10.0,95,82,67,30.29,29.93,7,2,13,0.00
2014-3-10,53.9,44.2,37.0,43.0,36.7,31.0,91,76,60,29.93,29.66,8,2,16,0.00
2014-3-11,51.6,43.4,37.0,44.0,39.1,35.0,97,85,69,29.69,29.61,5,1,12,0.00
2014-3-12,39.6,27.4,12.1,36.0,25.8,10.0,97,93,86,30.06,29.50,19,10,27,0.15
2014-3-13,30.2,17.0,-2.1,25.0,13.3,-5.0,91,85,77,30.23,30.00,9,3,15,0.06
2014-3-14,54.2,41.6,30.2,40.0,32.6,25.0,84,71,53,30.00,29.64,15,4,21,0.01
2014-3-15,40.7,35.9,30.5,33.0,29.9,23.0,89,79,66,30.22,29.82,12,5,17,0.00
2014-3-16,30.4,23.2,17.9,23.0,13.6,9.0,76,67,53,30.35,30.18,22,9,26,0.00
2014-3-17,33.4,22.1,11.4,24.0,15.0,7.0,86,74,60,30.17,29.90,14,6,17,0.00
2014-3-18,47.4,34.5,22.4,39.0,29.8,20.0,92,83,71,30.00,29.77,14,6,17,0.00
2014-3-19,48.5,41.8,35.1,45.0,39.8,33.0,96,92,84,29.93,29.63,9,4,20,0.12
2014-3-20,42.4,35.4,28.8,33.0,29.5,26.0,90,79,70,30.06,29.93,7,2,15,0.00
2014-3-21,51.4,38.9,28.5,44.0,35.1,26.0,95,86,68,30.07,29.68,21,6,21,0.01
2014-3-22,52.1,37.9,30.2,42.0,32.9,25.0,92,82,68,30.24,29.71,18,8,24,0.01
2014-3-23,30.6,25.9,19.0,25.0,16.6,13.0,84,68,55,30.40,30.24,12,6,19,0.00
2014-3-24,35.6,23.8,14.0,19.0,15.0,11.0,92,71,51,30.39,30.14,14,2,17,0.00
2014-3-25,30.6,24.9,17.9,24.0,17.5,12.0,93,74,58,30.23,29.97,22,7,28,0.00
2014-3-26,36.0,25.7,14.0,22.0,17.3,12.0,92,72,51,30.38,30.18,7,2,16,0.01
2014-3-27,48.9,38.1,31.6,42.0,30.9,21.0,89,76,58,30.17,29.63,15,7,24,0.09
2014-3-28,51.0,41.3,32.1,48.0,37.8,30.0,94,87,73,30.17,29.57,19,8,29,0.02
2014-3-29,41.0,35.2,30.3,35.0,31.9,27.0,96,88,72,30.19,30.07,13,5,21,0.07
2014-3-30,53.5,38.0,25.2,32.0,27.3,23.0,92,69,41,30.26,30.12,8,2,14,0.00
2014-3-31,64.5,49.5,31.3,41.0,36.0,28.0,90,63,40,30.16,29.89,20,7,24,0.00
2014-4-1,54.5,49.9,45.2,46.0,38.4,33.0,82,65,54,30.05,29.75,15,5,22,0.07
2014-4-2,55.6,46.7,34.4,38.0,34.9,30.0,90,65,49,30.15,30.04,9,2,13,0.00
2014-4-3,48.5,38.6,34.3,37.0,35.5,33.0,97,89,59,30.07,29.72,24,12,33,1.84
2014-4-4,47.6,39.1,36.2,47.0,37.2,31.0,99,93,78,29.88,29.48,15,6,25,0.02
2014-4-5,48.7,38.6,30.9,32.0,27.6,23.0,84,67,39,30.21,29.89,18,7,23,0.00
2014-4-6,54.2,40.1,25.0,35.0,28.8,22.0,90,67,40,30.21,29.98,10,2,15,0.00
2014-4-7,53.6,42.8,34.3,42.0,35.1,29.0,96,76,45,29.98,29.52,15,5,21,0.47
2014-4-8,54.4,44.9,36.8,44.0,38.8,34.0,97,80,60,29.85,29.56,16,5,18,0.01
2014-4-9,59.5,46.8,30.7,41.0,35.5,29.0,94,67,45,30.03,29.86,9,2,14,0.00
2014-4-10,67.7,55.4,46.4,50.0,43.9,38.0,95,67,47,29.95,29.72,12,4,22,0.06
2014-4-11,67.4,52.6,37.7,49.0,38.8,32.0,99,67,27,30.03,29.88,8,1,17,0.01
2014-4-12,75.4,62.0,43.8,57.0,46.0,36.0,76,57,43,30.07,29.75,11,4,20,0.00
2014-4-13,73.1,66.0,55.9,61.0,56.7,52.0,86,72,62,29.77,29.56,10,4,19,0.00
2014-4-14,68.4,48.3,30.1,59.0,44.3,29.0,96,86,66,29.86,29.40,20,9,33,0.17
2014-4-15,35.4,29.2,23.7,29.0,20.7,14.0,96,72,46,30.27,29.83,23,10,27,0.01
2014-4-16,46.9,35.5,22.1,30.0,22.4,17.0,81,61,43,30.44,30.27,13,6,23,0.00
2014-4-17,65.7,49.5,33.0,41.0,34.0,28.0,83,58,37,30.28,30.21,11,5,19,0.00
2014-4-18,66.5,54.4,40.8,47.0,41.2,34.0,87,63,34,30.29,30.22,14,3,19,0.00
2014-4-19,60.2,47.0,35.5,43.0,35.4,28.0,91,66,38,30.40,30.28,13,5,17,0.00
2014-4-20,73.1,54.6,35.3,42.0,36.1,30.0,85,54,27,30.31,30.07,10,3,17,0.00
2014-4-21,75.9,61.7,45.4,56.0,46.5,37.0,80,59,40,30.07,29.78,7,2,17,0.00
2014-4-22,61.2,50.7,39.2,57.0,42.1,31.0,97,74,54,29.98,29.69,23,10,30,0.03
2014-4-23,57.8,46.6,32.7,36.0,31.8,28.0,85,59,36,30.13,29.98,13,5,16,0.00
2014-4-24,59.3,52.2,45.5,37.0,31.3,26.0,70,47,29,30.12,29.75,19,9,26,0.00
2014-4-25,62.3,50.9,43.0,47.0,41.7,33.0,96,72,51,29.83,29.62,16,5,24,0.24
2014-4-26,62.7,54.4,46.0,45.0,39.1,32.0,84,58,33,30.00,29.80,14,5,21,0.00
2014-4-27,60.2,48.1,39.1,41.0,36.8,32.0,87,67,44,30.10,29.92,25,13,30,0.00
2014-4-28,48.9,47.2,44.5,47.0,41.4,32.0,96,81,58,29.94,29.66,23,14,29,0.31
2014-4-29,74.0,59.7,47.9,57.0,49.6,42.0,99,74,33,29.70,29.49,17,7,27,0.23
2014-4-30,61.6,53.3,44.7,53.0,48.3,39.0,95,83,67,29.83,29.69,9,3,14,0.00
2014-5-1,50.1,45.4,41.3,43.0,40.5,38.0,94,83,71,29.82,29.75,11,3,18,0.06
2014-5-2,53.7,47.7,44.7,46.0,44.2,43.0,96,88,72,29.85,29.79,10,2,15,0.01
2014-5-3,65.1,54.3,47.1,49.0,43.4,38.0,90,69,39,29.83,29.69,21,4,30,0.01
2014-5-4,57.1,51.5,42.1,43.0,35.9,26.0,79,57,35,30.07,29.82,19,6,26,0.00
2014-5-5,58.6,50.0,42.0,39.0,36.7,31.0,78,61,46,30.06,29.91,16,6,22,0.00
2014-5-6,67.2,53.3,40.0,45.0,39.4,34.0,87,61,43,30.03,29.93,18,8,22,0.00
2014-5-7,78.4,62.5,50.1,59.0,48.7,37.0,80,61,50,29.96,29.83,16,9,21,0.00
2014-5-8,87.5,70.5,51.2,67.0,58.2,47.0,88,67,45,29.93,29.82,14,4,19,0.00
2014-5-9,77.1,69.9,62.0,65.0,60.5,54.0,89,72,58,29.85,29.67,9,3,25,0.06
2014-5-10,73.2,61.0,47.7,56.0,45.2,37.0,93,60,32,29.97,29.80,13,2,21,0.00
2014-5-11,84.3,67.1,47.2,66.0,54.0,41.0,95,64,45,30.02,29.87,12,2,16,0.69
2014-5-12,82.8,71.9,61.6,73.0,67.0,61.0,98,86,69,29.98,29.87,14,3,20,0.18
2014-5-13,79.7,68.9,56.0,71.0,65.4,54.0,95,89,72,30.06,29.86,11,4,18,0.45
2014-5-14,56.3,53.1,48.9,54.0,51.2,48.0,97,93,87,30.11,29.83,13,6,19,0.84
2014-5-15,55.0,47.5,37.0,55.0,45.7,35.0,98,93,76,30.04,29.67,15,4,20,0.12
2014-5-16,49.6,41.7,32.7,43.0,38.2,32.0,98,88,72,30.07,30.00,8,2,10,0.01
2014-5-17,55.3,46.1,39.2,42.0,39.4,36.0,95,78,55,30.21,30.04,13,2,20,0.01
2014-5-18,64.6,52.8,38.8,43.0,39.8,36.0,92,65,38,30.29,30.21,6,1,11,0.00
2014-5-19,68.0,57.3,41.5,48.0,43.0,37.0,87,62,43,30.28,30.05,13,4,18,0.00
2014-5-20,82.0,68.8,56.8,67.0,57.8,47.0,78,68,59,30.10,29.85,12,4,20,0.02
2014-5-21,83.3,71.3,60.1,73.0,64.3,58.0,98,80,48,29.92,29.77,11,2,17,0.54
2014-5-22,69.6,63.7,54.5,61.0,53.5,49.0,88,70,55,30.06,29.81,15,6,19,0.00
2014-5-23,70.6,58.7,47.0,51.0,48.7,45.0,93,72,48,30.15,30.05,14,4,17,0.00
2014-5-24,76.9,61.9,43.7,55.0,50.1,42.0,97,69,40,30.21,30.10,6,1,11,0.00
2014-5-25,82.1,67.2,50.5,59.0,54.0,49.0,96,67,38,30.14,30.02,6,1,11,0.00
2014-5-26,85.7,71.7,56.5,69.0,60.9,53.0,94,70,51,30.06,29.90,14,1,18,0.39
2014-5-27,84.4,74.3,65.6,70.0,66.3,64.0,98,79,52,29.99,29.82,13,2,16,0.08
2014-5-28,78.4,70.7,62.6,69.0,65.7,62.0,99,85,68,29.99,29.86,9,2,13,0.00
2014-5-29,79.6,69.0,57.7,64.0,59.7,56.0,93,74,53,30.08,29.99,8,3,14,0.00
2014-5-30,81.1,68.2,54.0,59.0,56.3,52.0,94,68,44,30.17,30.08,11,3,18,0.00
2014-5-31,83.8,71.5,54.2,61.0,56.3,52.0,93,61,40,30.19,30.05,13,3,15,0.00
2014-6-1,86.0,73.3,57.3,67.0,56.5,50.0,79,58,36,30.11,29.91,9,3,15,0.00
2014-6-2,79.4,74.2,70.7,72.0,68.7,66.0,92,83,71,29.97,29.81,10,3,21,0.07
2014-6-3,81.4,73.1,58.0,68.0,60.4,50.0,95,68,38,29.89,29.83,17,4,25,0.02
2014-6-4,62.6,59.7,56.0,59.0,55.9,52.0,96,87,73,29.89,29.74,13,4,21,0.88
2014-6-5,74.2,62.8,50.9,57.0,52.7,49.0,99,73,43,29.96,29.84,11,2,13,0.01
2014-6-6,80.5,66.2,50.5,59.0,53.7,49.0,99,69,34,29.99,29.92,6,1,9,0.00
2014-6-7,81.1,69.1,53.2,62.0,56.6,52.0,98,68,41,30.00,29.79,9,2,12,0.00
2014-6-8,76.8,67.8,60.7,64.0,60.3,57.0,97,78,54,29.95,29.72,13,4,19,0.72
2014-6-9,77.0,67.0,58.3,62.0,58.0,55.0,94,75,48,29.99,29.88,10,2,11,0.00
2014-6-10,75.5,65.9,57.5,64.0,61.2,56.0,97,85,65,29.89,29.75,14,5,19,0.27
2014-6-11,76.8,69.9,64.8,68.0,66.1,64.0,97,88,74,29.75,29.63,12,5,16,0.08
2014-6-12,80.3,69.3,62.8,68.0,64.4,62.0,97,86,63,29.79,29.67,5,1,12,0.01
2014-6-13,69.7,63.5,49.2,63.0,52.1,44.0,89,68,47,30.02,29.76,16,6,21,0.00
2014-6-14,76.9,62.4,44.6,52.0,47.5,43.0,95,63,34,30.13,30.01,5,1,9,0.00
2014-6-15,82.9,70.2,52.8,66.0,57.8,48.0,85,66,51,30.05,29.88,15,4,23,0.00
2014-6-16,87.5,78.0,68.8,71.0,68.5,66.0,95,74,53,30.04,29.92,7,1,10,0.00
2014-6-17,89.0,79.9,71.9,75.0,72.0,69.0,92,77,62,29.94,29.80,14,2,19,0.00
2014-6-18,87.9,75.9,67.4,76.0,71.2,66.0,98,86,63,29.97,29.84,10,1,25,0.85
2014-6-19,81.6,73.5,68.8,71.0,69.0,66.0,99,87,67,30.06,29.93,11,3,15,0.01
2014-6-20,81.5,70.8,64.5,74.0,67.6,62.0,96,89,78,30.03,29.85,8,3,13,0.12
2014-6-21,81.5,69.6,62.2,70.0,65.9,62.0,99,89,64,29.97,29.83,9,1,10,0.20
2014-6-22,81.5,72.6,65.8,73.0,68.9,65.0,98,88,73,29.89,29.81,10,3,14,0.18
2014-6-23,85.6,72.7,64.3,75.0,69.0,63.0,98,89,67,29.86,29.79,14,2,21,0.70
2014-6-24,76.7,72.0,68.3,73.0,70.2,67.0,98,94,84,29.86,29.81,5,1,8,0.09
2014-6-25,82.6,72.8,64.3,73.0,68.6,64.0,100,88,63,29.95,29.84,9,2,19,0.01
2014-6-26,81.9,71.4,64.6,70.0,65.7,64.0,98,83,56,30.03,29.95,7,2,10,0.00
2014-6-27,84.6,73.7,63.4,71.0,67.2,63.0,99,82,56,30.05,29.98,9,3,17,0.00
2014-6-28,81.1,74.8,69.3,74.0,70.6,66.0,95,87,76,30.06,29.97,12,4,13,0.04
2014-6-29,86.0,77.2,70.8,75.0,71.8,70.0,97,84,66,29.99,29.88,8,3,13,0.00
2014-6-30,82.6,75.0,69.8,75.0,71.1,68.0,97,88,74,29.93,29.68,13,3,18,0.00
2014-7-1,83.5,73.6,64.9,75.0,67.5,64.0,98,82,58,29.76,29.58,16,3,30,0.80
2014-7-2,74.5,69.4,62.7,67.0,62.7,58.0,93,80,66,29.94,29.75,10,2,14,0.00
2014-7-3,71.7,62.7,52.1,59.0,52.0,45.0,93,70,41,30.15,29.93,15,6,21,0.00
2014-7-4,76.2,63.2,48.1,57.0,51.7,47.0,98,70,40,30.28,30.16,9,2,13,0.00
2014-7-5,78.2,66.0,51.4,61.0,55.2,49.0,94,71,47,30.28,30.07,8,1,11,0.00
2014-7-6,79.7,71.9,61.0,72.0,65.1,58.0,90,79,71,30.06,29.77,10,2,16,0.00
2014-7-7,84.5,76.1,69.9,76.0,71.3,68.0,95,85,70,29.77,29.67,8,2,13,0.17
2014-7-8,80.6,72.4,66.2,72.0,67.8,63.0,98,87,57,29.77,29.57,11,2,21,0.52
2014-7-9,76.1,68.6,59.2,66.0,61.7,57.0,98,80,58,30.00,29.77,13,3,16,0.01
2014-7-10,75.0,64.1,52.3,60.0,56.4,51.0,98,78,53,30.15,30.00,7,2,12,0.00
2014-7-11,80.7,67.3,51.5,66.0,59.5,51.0,99,79,49,30.21,30.10,6,1,15,0.00
2014-7-12,80.7,72.9,65.3,71.0,67.8,62.0,93,84,67,30.13,29.88,7,2,17,0.00
2014-7-13,81.7,75.1,65.2,74.0,69.7,63.0,97,84,64,29.89,29.80,10,3,17,0.14
2014-7-14,83.8,72.1,64.8,69.0,66.0,61.0,96,83,50,29.84,29.73,4,0,11,0.20
2014-7-15,67.4,61.9,52.7,64.0,56.2,51.0,97,82,61,29.91,29.74,14,4,20,0.01
2014-7-16,68.0,59.3,50.3,58.0,54.3,50.0,99,84,64,30.02,29.91,12,2,16,0.00
2014-7-17,73.9,60.1,45.1,59.0,51.9,44.0,99,78,44,30.12,30.02,5,0,10,0.00
2014-7-18,76.1,62.6,48.2,64.0,54.8,47.0,99,78,47,30.20,30.09,6,1,11,0.01
2014-7-19,76.9,65.2,52.4,65.0,59.3,51.0,99,83,62,30.09,29.98,7,2,13,0.00
2014-7-20,81.3,68.6,54.8,67.0,61.6,54.0,99,81,54,30.05,29.98,7,1,11,0.00
2014-7-21,86.4,72.8,57.0,69.0,63.7,56.0,99,76,50,30.10,30.02,4,0,7,0.00
2014-7-22,87.4,75.6,60.1,72.0,67.6,59.0,98,78,58,30.07,29.91,6,1,12,0.00
2014-7-23,77.5,70.0,61.2,72.0,65.4,59.0,97,86,66,30.03,29.89,18,4,21,0.08
2014-7-24,75.2,64.7,54.5,59.0,56.8,52.0,97,78,50,30.10,30.01,11,2,14,0.00
2014-7-25,75.8,63.8,48.7,64.0,57.0,48.0,99,80,59,30.08,29.93,6,1,10,0.00
2014-7-26,80.5,70.5,60.0,72.0,66.4,58.0,97,87,74,29.95,29.76,6,1,8,0.00
2014-7-27,83.1,72.5,63.1,75.0,69.4,59.0,99,90,71,29.79,29.58,24,2,50,1.12
2014-7-28,67.9,61.9,52.2,62.0,57.5,50.0,95,85,72,30.01,29.74,17,7,18,0.00
2014-7-29,72.9,59.6,46.2,65.0,54.9,46.0,99,86,65,30.03,29.96,9,1,12,0.20
2014-7-30,76.1,65.0,55.5,64.0,59.7,55.0,98,84,62,30.01,29.96,10,2,13,0.00
2014-7-31,79.6,66.2,52.2,66.0,60.8,51.0,99,84,57,30.03,29.99,8,1,15,0.29
2014-8-1,80.9,68.8,58.4,68.0,63.1,58.0,99,84,57,30.07,30.02,12,1,18,0.01
2014-8-2,80.3,68.5,55.8,68.0,62.5,55.0,99,83,58,30.12,30.03,8,1,10,0.00
2014-8-3,83.2,68.8,53.6,68.0,61.7,53.0,99,80,52,30.12,30.03,11,1,14,0.00
2014-8-4,83.2,71.4,59.1,71.0,65.8,58.0,99,83,55,30.09,30.00,6,1,10,0.00
2014-8-5,77.1,68.2,62.4,71.0,66.2,62.0,98,93,77,30.05,29.96,4,0,6,0.07
2014-8-6,77.0,67.5,61.0,69.0,64.5,59.0,100,91,66,30.04,29.96,5,1,8,0.01
2014-8-7,78.2,66.3,53.1,66.0,59.6,53.0,99,81,55,30.10,30.01,7,1,10,0.01
2014-8-8,80.2,67.7,55.7,65.0,59.6,55.0,98,77,51,30.09,30.00,13,3,15,0.00
2014-8-9,81.2,69.4,59.1,64.0,60.3,56.0,94,75,54,30.07,29.99,10,4,14,0.00
2014-8-10,85.4,73.0,62.1,72.0,66.0,57.0,92,80,59,30.04,29.90,9,3,12,0.00
2014-8-11,76.9,70.4,65.3,71.0,68.1,64.0,98,92,79,29.92,29.72,8,2,12,0.67
2014-8-12,67.8,64.4,57.7,67.0,63.0,56.0,99,94,86,29.91,29.67,13,4,24,0.04
2014-8-13,76.2,64.5,52.6,65.0,58.7,52.0,99,83,59,30.00,29.91,9,2,14,0.01
2014-8-14,71.2,60.7,49.0,59.0,52.6,46.0,98,77,48,30.05,29.98,14,3,15,0.00
2014-8-15,74.6,57.8,39.8,55.0,48.7,39.0,99,75,43,30.08,29.97,8,1,9,0.00
2014-8-16,78.7,64.5,46.7,71.0,60.2,46.0,98,86,69,29.98,29.88,4,1,9,0.01
2014-8-17,82.1,72.8,60.7,70.0,67.4,60.0,100,84,62,29.94,29.86,5,1,8,0.00
2014-8-18,81.9,71.0,59.8,72.0,65.9,58.0,96,85,66,29.89,29.76,8,1,9,0.00
2014-8-19,83.5,71.3,62.5,73.0,67.9,62.0,99,89,67,29.79,29.71,11,1,23,0.82
2014-8-20,84.1,73.4,64.1,73.0,68.4,64.0,99,85,65,29.93,29.73,6,1,12,0.00
2014-8-21,79.1,72.8,67.5,74.0,70.7,66.0,98,93,85,29.98,29.87,8,1,14,0.21
2014-8-22,84.1,75.5,69.1,77.0,73.1,69.0,99,92,76,29.95,29.87,7,1,11,1.43
2014-8-23,83.4,75.9,71.3,76.0,73.3,67.0,100,92,77,29.97,29.90,9,3,13,0.62
2014-8-24,82.1,73.2,66.4,76.0,70.3,65.0,97,91,80,30.01,29.95,10,3,14,0.00
2014-8-25,88.7,74.9,67.5,78.0,71.1,67.0,99,89,65,30.04,29.95,5,1,12,0.07
2014-8-26,83.3,71.1,64.6,76.0,69.4,64.0,99,94,76,30.09,29.98,7,0,20,0.22
2014-8-27,80.3,71.4,63.2,69.0,66.2,61.0,99,85,56,30.08,30.03,8,2,11,0.01
2014-8-28,78.1,67.3,58.2,68.0,62.9,57.0,98,87,64,30.10,30.02,6,1,8,0.00
2014-8-29,81.8,70.8,61.0,73.0,66.1,59.0,94,85,73,30.06,29.92,11,4,13,0.00
2014-8-30,82.8,75.3,69.1,74.0,70.3,67.0,92,84,73,29.93,29.83,10,3,15,0.00
2014-8-31,84.1,74.4,67.9,74.0,70.9,67.0,98,89,71,29.93,29.87,6,1,12,0.01
2014-9-1,81.6,74.7,70.0,75.0,71.5,67.0,99,90,76,29.89,29.73,8,2,17,0.15
2014-9-2,79.2,69.9,62.1,71.0,66.8,61.0,97,90,72,29.93,29.83,8,1,12,0.05
2014-9-3,83.5,70.2,57.7,68.0,63.7,58.0,100,82,54,30.02,29.94,4,0,8,0.00
2014-9-4,83.8,73.4,63.8,75.0,69.1,62.0,96,87,71,30.05,29.93,5,1,13,0.01
2014-9-5,90.5,78.0,68.6,79.0,72.5,68.0,98,84,63,30.02,29.83,10,2,18,0.49
2014-9-6,71.5,65.9,54.9,69.0,61.4,53.0,98,86,64,30.14,29.94,12,4,14,0.03
2014-9-7,75.1,60.9,48.2,60.0,54.5,48.0,99,82,52,30.21,30.11,5,1,7,0.01
2014-9-8,76.5,62.3,49.9,62.0,56.4,49.0,98,83,55,30.15,30.00,8,1,10,0.00
2014-9-9,71.1,62.0,52.4,67.0,59.8,52.0,99,92,78,30.05,29.92,6,1,8,0.18
2014-9-10,74.2,69.2,64.7,73.0,67.6,62.0,99,94,88,29.92,29.58,13,4,24,1.45
2014-9-11,63.9,56.2,52.8,63.0,54.0,52.0,98,92,86,30.19,29.70,15,7,20,0.01
2014-9-12,56.8,54.5,53.0,53.0,52.0,50.0,95,91,84,30.27,30.16,6,1,8,0.00
2014-9-13,60.0,52.5,43.6,53.0,48.5,43.0,98,87,65,30.32,30.14,12,4,21,0.11
2014-9-14,65.7,51.9,40.0,52.0,46.7,40.0,99,84,56,30.33,30.18,6,1,9,0.00
2014-9-15,57.8,51.1,43.2,55.0,50.1,43.0,99,96,89,30.21,30.05,5,0,11,0.28
2014-9-16,65.6,54.9,45.3,53.0,50.1,44.0,99,86,56,30.19,30.07,7,1,9,0.01
2014-9-17,69.0,53.5,40.9,55.0,48.2,40.0,100,84,54,30.09,29.96,4,0,9,0.01
2014-9-18,71.3,55.3,39.5,55.0,48.6,39.0,99,81,51,30.16,30.01,7,1,11,0.00
2014-9-19,69.8,57.7,49.1,57.0,52.0,49.0,98,83,55,30.21,30.02,11,3,14,0.01
2014-9-20,79.5,64.5,51.7,69.0,59.6,50.0,98,85,67,30.02,29.78,8,2,20,0.72
2014-9-21,68.1,60.5,49.4,68.0,56.9,46.0,99,88,73,30.05,29.66,17,6,23,0.10
2014-9-22,63.7,51.6,42.7,50.0,44.6,39.0,95,78,55,30.27,30.06,11,4,14,0.00
2014-9-23,73.6,54.8,40.5,55.0,48.2,40.0,99,81,51,30.36,30.27,4,0,7,0.00
2014-9-24,75.0,58.9,45.1,56.0,50.9,44.0,99,78,45,30.38,30.27,7,2,11,0.01
2014-9-25,76.7,61.1,47.7,58.0,52.6,47.0,99,77,42,30.30,30.20,5,1,11,0.00
2014-9-26,77.8,62.9,52.5,61.0,55.6,52.0,98,80,47,30.26,30.19,7,1,22,0.01
2014-9-27,76.8,63.1,52.2,62.0,57.2,51.0,99,83,53,30.25,30.14,10,1,12,0.01
2014-9-28,79.3,62.9,52.1,63.0,55.9,51.0,99,81,46,30.15,30.03,5,1,8,0.00
2014-9-29,78.1,61.6,46.5,62.0,55.3,46.0,99,83,50,30.03,29.88,7,1,11,0.00
2014-9-30,60.3,53.8,48.4,59.0,51.5,48.0,98,91,84,30.00,29.89,10,4,16,0.06
2014-10-1,65.9,55.5,42.1,56.0,51.0,41.0,99,86,67,30.05,29.96,9,2,14,0.00
2014-10-2,75.2,63.2,54.6,68.0,59.5,51.0,95,87,75,29.98,29.70,9,3,13,0.11
2014-10-3,71.0,60.2,45.5,66.0,57.0,43.0,98,89,76,29.72,29.41,17,5,22,0.62
2014-10-4,45.5,42.7,40.1,43.0,36.7,33.0,93,79,64,29.78,29.68,13,3,17,0.01
2014-10-5,56.8,48.0,39.8,44.0,38.9,36.0,89,72,48,29.79,29.68,10,2,22,0.00
2014-10-6,59.3,50.5,41.3,55.0,46.5,40.0,96,86,73,29.71,29.58,11,2,18,0.08
2014-10-7,59.0,50.5,42.0,57.0,48.7,41.0,98,93,84,29.81,29.65,7,1,13,0.40
2014-10-8,61.9,52.4,44.0,49.0,42.3,35.0,96,72,38,30.01,29.81,14,2,23,0.01
2014-10-9,60.4,50.2,43.0,47.0,42.4,37.0,89,75,55,30.11,29.99,11,1,11,0.00
2014-10-10,56.8,47.0,36.1,44.0,39.5,35.0,97,77,53,30.17,30.09,8,1,11,0.00
2014-10-11,58.7,45.5,32.4,41.0,36.7,31.0,97,74,44,30.24,30.13,9,2,12,0.00
2014-10-12,62.8,49.3,32.6,46.0,39.4,31.0,95,71,49,30.19,29.94,11,4,16,0.00
2014-10-13,74.9,64.9,53.1,68.0,61.2,47.0,99,88,70,29.93,29.64,17,5,22,0.58
2014-10-14,70.7,62.9,57.7,65.0,60.5,53.0,98,92,80,29.66,29.49,16,6,22,0.79
2014-10-15,58.0,55.6,53.0,55.0,53.4,52.0,97,93,85,29.76,29.64,8,2,10,0.01
2014-10-16,64.0,56.6,52.3,56.0,53.6,52.0,99,90,71,29.79,29.72,11,2,12,0.01
2014-10-17,65.2,56.4,51.2,54.0,51.5,50.0,96,84,63,29.74,29.56,13,2,17,0.04
2014-10-18,51.7,46.8,40.5,50.0,44.3,37.0,95,91,81,30.15,29.74,15,7,23,0.12
2014-10-19,54.5,42.9,29.9,43.0,37.3,29.0,98,82,60,30.24,29.99,4,1,9,0.01
2014-10-20,62.7,53.0,46.6,53.0,47.8,43.0,88,83,67,29.99,29.79,14,3,16,0.01
2014-10-21,52.4,47.9,39.6,47.0,43.2,37.0,93,84,74,30.23,29.91,15,5,18,0.00
2014-10-22,53.9,42.2,33.8,44.0,38.1,33.0,96,86,68,30.36,30.23,8,2,11,0.00
2014-10-23,59.1,42.5,29.1,47.0,38.1,28.0,99,86,58,30.30,30.11,5,1,8,0.01
2014-10-24,63.9,50.4,37.1,55.0,46.6,36.0,97,87,70,30.11,29.97,4,0,9,0.00
2014-10-25,68.8,57.7,50.5,58.0,48.7,37.0,97,75,32,29.96,29.84,16,2,19,0.00
2014-10-26,63.2,49.9,36.2,43.0,36.8,34.0,93,64,35,30.00,29.89,9,2,15,0.00
2014-10-27,75.7,62.3,41.0,63.0,49.5,37.0,85,64,52,29.93,29.66,16,4,27,0.01
2014-10-28,68.9,59.6,47.9,59.0,50.0,39.0,95,72,54,29.93,29.68,10,2,17,0.18
2014-10-29,47.6,43.9,39.8,39.0,37.7,36.0,88,79,72,30.12,29.93,14,2,15,0.00
2014-10-30,50.1,45.5,42.5,39.0,38.3,36.0,88,76,62,30.16,30.03,4,0,7,0.00
2014-10-31,44.8,39.9,33.4,41.0,36.3,28.0,94,87,79,30.19,29.91,25,8,28,0.16
2014-11-1,41.1,33.6,24.7,27.0,24.5,21.0,86,70,52,30.39,30.18,20,9,31,0.00
2014-11-2,51.3,34.4,19.8,33.0,24.4,18.0,96,71,34,30.48,30.30,7,1,10,0.00
2014-11-3,63.1,52.3,40.2,41.0,33.5,27.0,59,49,43,30.30,30.04,9,3,16,0.00
2014-11-4,55.9,50.0,42.0,49.0,42.8,35.0,97,79,45,30.09,29.93,9,3,15,0.31
2014-11-5,59.4,47.5,38.0,44.0,40.6,36.0,95,78,55,30.17,29.96,6,1,10,0.01
2014-11-6,47.7,43.6,37.2,46.0,41.4,33.0,97,91,82,30.09,29.74,20,6,30,0.11
2014-11-7,42.9,38.0,33.5,36.0,33.1,30.0,91,82,70,30.18,29.94,10,2,19,0.01
2014-11-8,44.5,40.7,35.9,41.0,35.7,31.0,89,82,77,29.95,29.76,15,3,23,0.00
2014-11-9,45.4,39.3,31.5,37.0,32.1,29.0,90,76,61,29.97,29.84,11,2,16,0.00
2014-11-10,59.9,49.5,41.1,44.0,38.8,36.0,83,68,47,29.89,29.68,13,5,21,0.00
2014-11-11,58.6,46.9,35.1,49.0,40.5,33.0,95,79,64,30.01,29.66,15,5,20,0.13
2014-11-12,35.1,31.6,26.8,32.0,26.1,23.0,89,80,74,30.27,30.02,19,4,22,0.00
2014-11-13,32.1,26.7,23.3,25.0,21.7,19.0,90,81,70,30.29,30.23,11,2,21,0.01
2014-11-14,33.5,26.7,20.2,24.0,21.4,18.0,93,81,66,30.39,30.27,11,2,15,0.00
2014-11-15,32.4,25.6,16.5,23.0,18.6,14.0,91,76,59,30.45,30.26,5,1,13,0.00
2014-11-16,31.8,29.5,27.0,29.0,26.1,22.0,95,87,77,30.27,29.91,4,0,9,0.00
2014-11-17,29.4,21.7,12.2,28.0,17.0,6.0,95,82,68,29.97,29.80,13,3,22,0.00
2014-11-18,17.9,14.2,10.4,12.0,8.8,5.0,84,79,72,30.22,29.97,11,3,25,0.00
2014-11-19,33.4,23.2,13.0,27.0,17.7,10.0,87,79,70,30.21,29.78,13,5,21,0.01
2014-11-20,28.8,23.1,18.1,17.0,13.8,10.0,85,68,54,30.25,30.01,10,3,18,0.00
2014-11-21,28.7,21.2,12.3,17.0,13.4,8.0,83,72,59,30.54,30.25,9,3,14,0.00
2014-11-22,50.9,40.8,24.3,46.0,36.9,16.0,94,86,70,30.33,29.96,12,3,14,0.09
2014-11-23,54.9,49.5,44.8,53.0,47.2,43.0,99,92,81,29.96,29.09,14,6,24,1.75
2014-11-24,54.9,45.2,32.7,54.0,43.0,29.0,98,92,84,29.75,29.06,18,6,28,0.21
2014-11-25,30.5,28.0,25.0,27.0,23.8,21.0,88,84,78,30.24,29.82,13,3,19,0.00
2014-11-26,28.4,26.5,24.1,24.0,22.7,21.0,87,85,82,30.23,30.11,9,2,10,0.00
2014-11-27,31.9,27.6,21.0,30.0,24.9,19.0,94,89,86,30.39,30.15,9,3,17,0.01
2014-11-28,31.6,24.6,16.3,25.0,20.3,14.0,94,84,75,30.40,30.03,12,4,17,0.00
2014-11-29,52.3,41.5,30.6,49.0,36.0,25.0,89,81,70,30.04,29.72,14,6,21,0.00
2014-11-30,61.1,51.9,37.7,56.0,49.6,36.0,96,91,83,30.12,29.71,14,5,19,0.09
2014-12-1,37.5,28.3,19.0,36.0,22.7,15.0,93,80,67,30.61,30.13,17,8,19,0.00
2014-12-2,31.8,27.4,19.8,31.0,24.0,16.0,96,87,78,30.57,30.11,13,5,16,0.00
2014-12-3,37.8,31.7,26.8,31.0,25.8,21.0,96,80,57,30.37,30.10,10,2,21,0.01
2014-12-4,32.5,28.5,22.8,28.0,24.0,19.0,90,83,77,30.45,30.31,11,4,13,0.00
2014-12-5,39.1,35.1,31.8,36.0,32.4,28.0,95,89,83,30.32,30.17,9,3,15,0.01
2014-12-6,38.2,33.4,23.2,34.0,29.9,21.0,92,87,75,30.64,30.18,13,5,19,0.00
2014-12-7,36.1,29.0,20.1,29.0,24.7,17.0,90,84,74,30.69,30.39,13,5,19,0.00
2014-12-8,39.8,34.2,28.2,37.0,31.7,26.0,97,91,81,30.38,30.05,9,3,12,0.15
2014-12-9,37.4,36.2,34.0,37.0,34.7,31.0,98,94,87,30.30,30.05,12,5,16,0.04
2014-12-10,33.8,29.6,21.0,31.0,26.0,19.0,95,86,80,30.34,30.21,11,5,14,0.00
2014-12-11,34.2,26.8,19.3,29.0,23.7,17.0,94,88,78,30.26,30.17,13,3,15,0.00
2014-12-12,32.1,26.8,22.7,32.0,25.9,22.0,98,96,93,30.33,30.23,11,2,13,0.00
2014-12-13,46.8,39.1,32.3,43.0,37.9,32.0,99,95,87,30.29,30.10,5,1,14,0.01
2014-12-14,54.3,47.1,43.4,48.0,44.2,42.0,95,90,79,30.13,30.06,7,1,8,0.00
2014-12-15,47.6,44.2,42.4,43.0,41.9,40.0,98,92,81,30.07,29.73,16,6,20,0.15
2014-12-16,44.8,42.2,33.9,45.0,41.7,33.0,99,98,95,30.03,29.64,10,3,17,0.28
2014-12-17,33.8,28.7,26.2,32.0,25.8,23.0,95,89,86,30.27,30.04,14,4,23,0.00
2014-12-18,28.1,27.1,26.6,25.0,24.0,23.0,90,88,86,30.31,30.23,5,1,9,0.00
2014-12-19,34.3,28.7,24.9,27.0,24.5,22.0,94,85,65,30.34,30.25,9,1,11,0.01
2014-12-20,32.5,28.7,24.0,29.0,26.6,23.0,95,92,79,30.32,30.27,5,0,8,0.00
2014-12-21,35.6,31.2,28.1,30.0,28.1,26.0,93,88,78,30.31,30.13,11,3,14,0.00
2014-12-22,39.1,32.1,25.7,38.0,30.1,24.0,96,92,88,30.12,29.72,15,7,18,0.15
2014-12-23,53.3,45.9,39.4,50.0,44.0,38.0,99,93,81,29.78,29.67,11,3,16,0.05
2014-12-24,44.0,39.6,35.5,42.0,38.6,35.0,98,96,90,29.71,29.37,15,5,17,0.46
2014-12-25,37.8,35.7,33.6,35.0,33.1,32.0,96,90,83,30.12,29.60,11,3,17,0.02
2014-12-26,49.8,40.2,32.8,44.0,37.3,31.0,95,89,78,30.14,30.07,7,2,12,0.00
2014-12-27,47.3,42.8,34.5,47.0,41.6,33.0,98,95,89,30.11,29.97,10,3,15,0.18
2014-12-28,34.4,31.7,22.9,32.0,28.6,21.0,95,88,80,30.25,30.04,9,2,14,0.00
2014-12-29,32.6,25.8,19.9,28.0,21.9,17.0,96,86,66,30.47,30.25,8,2,13,0.00
2014-12-30,25.7,19.6,14.6,20.0,14.8,9.0,92,81,68,30.62,30.46,14,3,17,0.00
2014-12-31,19.7,15.5,9.7,11.0,6.5,2.0,79,68,53,30.59,30.22,9,2,21,0.00
2015-1-1,28.7,22.9,16.5,20.0,14.1,10.0,75,69,59,30.23,30.03,12,4,23,0.00
2015-1-2,35.2,27.3,21.0,25.0,21.5,17.0,87,79,64,30.36,30.16,4,1,8,0.00